Погода Октябрьский Городок

Погода Октябрьский Городок : погода сейчас, прогноз погоды и архив. Всё, что Вы хотите узнать о погоде Октябрьский Городок!

Поиск расширенной информации на нашем сайте:

Другие новости

Новости СМИ2

Главная страница сайта

Новости сайта

03.07.2017

Напоминаем, что на нашем специализированном сайте Метеоцентр.Азия вы можете получить высокодетализированные автоматические прогнозы погоды по пунктам России, СНГ и мира в авиационном формате (включающие направление и скорость ветра, видимость, явления погоды, количество и форму облачности, нижнюю и верхнюю границу облачности).


Погода Октябрьский Городок - сегодня

Время (UTC), дата Ветер
(°,м/с) 
Видим.   Явления Облачность Т
(°С)
Тd
(°С)
f(%) Тe
(°С)
Pmin
(гПа)
dP
(гПа)
Po
(мм)
O2
(г/м3)
Тmin Tmax R s Состояние
почвы
00 17.02.18 090 (В) 20000 м    5/0 средняя 
[Ac As]
-14.4 -14.8 97 -18  1040.2  -0.8  760  324           
03 17.02.18 090 (В) 20000 м    5/0 средняя 
[Ac As]
-14.5 -15 96 -18  1039.1  -1.1  759  324  -14.6      23  равномерный
сухой снег
100% 
06 17.02.18 090 (В) 4000 м  дымка  9/0 средняя 
[Ac trans]
-14.1 -14.8 94 -18  1038.8  -0.2  759  324           
09 17.02.18 090 (В) 20000 м    8/0 верхняя 
[Ci]
-11.7 -12.7 92 -16  1037.4  -1.1  758  320           
12 17.02.18 090 (В) 20000 м    9/0 средняя, верхняя 
[Ac trans|Ci fib]
-9.8 -12.5 81 -14  1036.2  -2  756  317           
15 17.02.18 080 (В) 7-10{11}  20000 м    8/3 300 м средняя 
[Sc|Ac trans]
-11.5 -12 96 -18  1034  -1.4  755  319    -9.7       
18 17.02.18 090 (В) 5{11}  20000 м    8/0 средняя 
[Ac trans]
-11.6 -11.9 98 -17  1033.6  -0.4  755  319           
21 17.02.18 090 (В) 20000 м    6/0 средняя 
[Ac trans]
-12.6 -13.3 94 -17  1032.7  -1  754  320           
00 18.02.18 090 (В) 20000 м    10/0 средняя 
[Ac As]
-13.3 -13.8 96 -19  1031.3  -1.4  753  320           
03 18.02.18 090 (В) 5{10}  20000 м    10/0 средняя 
[Ac As]
-13 -13.5 96 -18  1029.6  -1.6  752  319  -13.4      23  равномерный
сухой снег
100% 
15 18.02.18 120 (ЮВ) 10 км  в посл. час снег  10/0 средняя 
[As op]
-9.7 -10.4 95 -11  1024.4  -0.5  748  314    -9.7     
18 18.02.18 110 (В) 20000 м  слаб. снег  10/0 средняя 
[As op]
-9.6 -9.9 98 -9  1024.3  0.1  748  314           
21 18.02.18 090 (В) 20000 м  {снег}  10/0 средняя 
[As op]
-9.5 -9.6 99 -9  1023.9  -0.4  748  313           
03 19.02.18 тихо ()   20000 м    10/0 средняя 
[Ac und]
-8.7 -8.9 98 -9  1023.1  -0.3  748  312  -10.6    0.3  24  равномерный
сухой снег
100% 
06 19.02.18 тихо ()   20000 м    10/0 средняя 
[Ac und]
-7.6 -8.6 93 -8  1023.2  0.2  748  311           
09 19.02.18 210 (ЮЗ) 20000 м    10/0 средняя 
[Ac und]
-6.7 -8.5 87 -6  1022.8  -0.3  747  310           
21 19.02.18 тихо ()   1000 м  дымка [диам. изморози 2 мм]  ясно 
-13.3 -13.7 97 -13  1021.8  -0.8  746  317           
03 20.02.18 250 (З) 20000 м  [диам. изморози 4 мм]  10/0 средняя 
[Ac und]
-8.3 -9.6 90 -8  1019.9  -0.9  745  311  -13.6      24  равномерный
сухой снег
100% 
09 20.02.18 250 (З) 20000 м    4/0 средняя 
[Ac trans]
-3 -5.4 83 -5  1019.2  0.1  745  304           
12 20.02.18 240 (ЮЗ) 20000 м    10/4 600 м кучево-дожд., верхняя 
[Cb cap|Ci fib]
-3.3 -6.6 78 -5  1018.8  -0.5  745  304           
15 20.02.18 270 (З) 20000 м  в посл. час снег  10/10 600 м 
[Sc]
-5.3 -7.5 84 -9  1019.6  0.6  745  307    -2.3  0.0     
21 20.02.18 270 (З) 20000 м    10/10 600 м 
[Sc]
-6.2 -8.2 86 -10  1021  0.4  746  308           
00 21.02.18 260 (З) 20000 м    ясно 
-11.7 -11.8 99 -15  1022.4  0.8  747  315           
03 21.02.18 250 (З) 20000 м  [диам. изморози 2 мм]  8/0 средняя 
[Ac trans]
-14.1 -14.5 97 -16  1023  0.3  747  319  -14.1      24  равномерный
сухой снег
100% 
06 21.02.18 250 (З) 20000 м  {снег} [диам. изморози 2 мм]  ясно 
-11.4 -11.8 97 -15  1023.4  0.7  748  315           
Время (UTC), дата Ветер
(°,м/с) 
Видим.   Явления Облачность Т
(°С)
Тd
(°С)
f(%) Тe
(°С)
Pmin
(гПа)
dP
(гПа)
Po
(мм)
O2
(г/м3)
Тmin Tmax R s Состояние
почвы

Для получения пояснительной информации подведите курсор к названию столбца.

ПОГОДА Октябрьский Городок - архив

Всё, что Вы хотите узнать о погоде Октябрьский Городок - удобно и подробно!

Выберите нужную дату (начиная с 1 января 2015* года) и нажмите кнопку "Найти".
Будут отображены архивные сводки погоды по пункту Октябрьский Городок, начиная с указанной даты.


Отображать данные в формате CSV (для использования в таблицах Excel)


Внимание! Наш архив погоды предназначен исключительно для личного некоммерческого использования в познавательных целях. Если Вам необходимы официальные справки о состоянии погоды (для производственных, юридических, коммерческих и т.п. целей), обращайтесь в органы Росгидромета.

*Примечание: данная дата относится к архиву по метеостанциям СССР (Россия, СНГ, Балтия).
Архив по метеостанциям Зарубежной Европы и Азии (кроме Китая) хранится 10 дней, по другим регионам земного шара (Китай, Африка, Америка, Австралия, Океания) - 1 день.

Октябрьский Городок - район местоположения метеостанции


Название, широта, долгота, высота метеостанции:
Октябрьский Городок 51.6°ш. 45.4°д. 201 м над ур. моря [Российская Федерация]

Дополнительная информация

В oтличие oт бoльшинства пoгoдных сайтoв мы публикуем пoдрoбную метеoинфoрмацию в детальнoм прoфессиoнальнoм фoрмате.

Характеристики температуры и влажнoсти вoздуха измеряются на высoте 2 м в тени вдали oт зданий и деревьев.
Скoрoсть ветра измеряется на высoте 10 м (на урoвне рoста челoвека скoрoсть ветра ниже в 1.5-2 раза). Если метеoстанция нахoдится в гoрoде или в лесу, тo скoрoсть ветра занижена на 2-4 м/с пo сравнению с oткрытым местoм. Скoрoсть ветра над акватoриями крупных рек и oзёр, а также на вершинах хoлмoв на 2-5 м/с выше, чем в oбычных услoвиях.
Атмoсфернoе давление в разных тoчках местнoсти мoжет значительнo oтличаться oт давления на метеoстанции, в зависимoсти oт услoвий рельефа (при пoдъёме на 10 м давление пoнижается примернo на 1 мм рт.ст.).